CUTE-1 (CO-55) 1 27844U 03031E 26072.98964531 .00000396 00000+0 19032-3 0 9999 2 27844 98.6777 82.7351 0010745 101.3524 258.8862 14.24270180178127 CUBESAT XI-IV (CO-57) 1 27848U 03031J 26073.56320221 .00000349 00000+0 17224-3 0 9999 2 27848 98.6807 83.0901 0010521 116.0304 244.1959 14.23565240177915 CUBESAT XI-V 1 28895U 05043F 26073.40511845 .00002210 00000+0 35702-3 0 9994 2 28895 98.2838 227.1185 0014964 143.2981 216.9253 14.72342957 87805 CUTE-1.7+APD II (CO-65) 1 32785U 08021C 26073.55609676 .00009572 00000+0 61792-3 0 9998 2 32785 97.8205 53.1147 0009061 2.4593 357.6677 15.08451051970926 CANX-2 1 32790U 08021H 26072.89627612 .00005974 00000+0 42669-3 0 9994 2 32790 97.8549 50.9188 0010906 14.2730 345.8802 15.04842735970475 SEEDS II (CO-66) 1 32791U 08021J 26073.43612563 .00022985 00000+0 80965-3 0 9997 2 32791 97.7516 67.0643 0000660 332.7648 27.3557 15.29309746972799 SWISSCUBE 1 35932U 09051B 26073.47271382 .00001347 00000+0 27685-3 0 9994 2 35932 98.4097 339.7002 0007406 138.7265 221.4497 14.62273966875313 BEESAT-1 1 35933U 09051C 26073.57075262 .00001195 00000+0 25066-3 0 9997 2 35933 98.4024 339.6305 0005649 148.8301 211.3235 14.61546162875362 ITUPSAT1 1 35935U 09051E 26072.79400777 .00001105 00000+0 23882-3 0 9990 2 35935 98.4112 338.1321 0007539 165.3239 194.8181 14.60278143874812 TISAT 1 1 36799U 10035E 26073.07987102 .00025205 00000+0 92777-3 0 9993 2 36799 98.0647 11.5235 0001981 154.0893 206.0444 15.27848554853168 AEROCUBE 4.5A 1 38767U 12048K 26073.13992856 .00108446 00000+0 11293-2 0 9997 2 38767 64.6385 4.5584 0040113 210.5295 149.3517 15.62968748357689 STRAND-1 1 39090U 13009E 26073.43811536 .00000416 00000+0 15431-3 0 9990 2 39090 98.3892 256.0118 0009273 148.2913 211.8834 14.37099499683452 BRITE-AUSTRIA 1 39091U 13009F 26073.48035883 .00000266 00000+0 10502-3 0 9996 2 39091 98.3961 255.2680 0010648 157.2399 202.9262 14.36499380683459 NEE-01 PEGASO 1 39151U 13018B 26073.19021079 .00004160 00000+0 40402-3 0 9992 2 39151 98.1050 214.3171 0013821 116.2405 244.0236 14.93130283696520 POPACS 2 1 39269U 13055E 26073.48597405 .00032281 00000+0 55800-3 0 9999 2 39269 80.9889 252.3698 0429795 137.5305 226.0028 14.88113822649117 POPACS 3 1 39270U 13055F 26073.42797117 .00014856 00000+0 35879-3 0 9999 2 39270 81.0048 331.7976 0559317 358.3347 1.5961 14.54121899624775 ZACUBE-1 (TSHEPISOSAT) 1 39417U 13066B 26073.13182302 .00005011 00000+0 39631-3 0 9999 2 39417 97.8156 34.9774 0043049 205.1786 154.7340 15.00372843666471 WNISAT-1 1 39423U 13066H 26073.43547474 .00001937 00000+0 35992-3 0 9993 2 39423 97.7047 229.3979 0163884 169.9184 190.5372 14.57892716652927 TRITON-1 1 39427U 13066M 26073.67015506 .00002804 00000+0 34228-3 0 9994 2 39427 97.8289 345.6452 0090506 181.4252 178.6717 14.81227409660098 GOMX-1 1 39430U 13066Q 26073.52434723 .00001923 00000+0 29526-3 0 9994 2 39430 97.6572 279.9280 0129897 22.0918 338.5816 14.69117694656012 CUBEBUG-2 (LO-74) 1 39440U 13066AA 26073.38908112 .00006556 00000+0 61561-3 0 9999 2 39440 97.8810 22.0690 0058035 343.4169 16.5150 14.93018127662845 NEE-02 KRYSAOR 1 39441U 13066AB 26073.56226096 .00004208 00000+0 46617-3 0 9991 2 39441 97.8815 13.5188 0067326 21.3141 339.0854 14.86200900662144 FUNCUBE-1 (AO-73) 1 39444U 13066AE 26072.35704843 .00007962 00000+0 51353-3 0 9994 2 39444 97.8186 41.9580 0037754 166.4701 193.7548 15.07980612665219 UWE-3 1 39446U 13066AG 26073.61172463 .00006966 00000+0 60832-3 0 9998 2 39446 97.8593 29.1621 0047907 275.1721 84.4033 14.96242909663432 BRITE-CA1 (TORONTO) 1 40020U 14033L 26073.31789968 .00001581 00000+0 24561-3 0 9991 2 40020 97.9574 204.0901 0078101 219.9071 139.6379 14.72479469628255 DUCHIFAT-1 1 40021U 14033M 26073.60578680 .00086823 00000+0 15095-2 0 9994 2 40021 98.0635 120.6147 0005629 70.3832 289.8025 15.50481818641035 NANOSATC-BR1 1 40024U 14033Q 26073.30413813 .00021180 00000+0 76934-3 0 9995 2 40024 98.0842 97.4678 0005007 137.2432 222.9196 15.28315368639470 QB50P1 1 40025U 14033R 26073.46052450 .00011401 00000+0 58588-3 0 9999 2 40025 98.1006 78.0660 0008912 177.3955 182.7325 15.16630587638660 QB50P2 1 40032U 14033Y 26073.48892310 .00011315 00000+0 63019-3 0 9995 2 40032 98.0731 64.5865 0009134 128.5595 231.6454 15.13772512638337 PERSEUS-M2 1 40037U 14033AD 26073.57928499 .00001349 00000+0 12823-3 0 9991 2 40037 97.9860 22.2721 0010621 252.0577 107.9486 14.95177917636640 PERSEUS-M1 1 40039U 14033AF 26073.35837543 .00002213 00000+0 20628-3 0 9991 2 40039 97.9551 16.0084 0010314 250.6320 109.3785 14.95275317636462 POLYITAN-1 1 40042U 14033AJ 26073.58043194 .00029301 00000+0 10141-2 0 9996 2 40042 98.1050 91.1045 0009577 114.5352 245.6886 15.29795133639118 TIGRISAT 1 40043U 14033AK 26073.37485532 .00002618 00000+0 30837-3 0 9997 2 40043 97.7678 225.6557 0050048 27.1926 333.1894 14.84754454631550 AEROCUBE 6A 1 40045U 14033AM 26073.40955516 .00008341 00000+0 72036-3 0 9993 2 40045 97.7133 241.4874 0038275 334.4381 25.4947 14.96920691632432 AEROCUBE 6B 1 40046U 14033AN 26073.43511842 .00007250 00000+0 60519-3 0 9998 2 40046 97.7113 241.1162 0037495 325.5923 34.2872 14.98308188632566 CANX-4 1 40055U 14034C 26073.57526933 .00001315 00000+0 17670-3 0 9997 2 40055 98.3269 305.3505 0012020 320.0852 39.9474 14.81075934630523 CANX-5 1 40056U 14034D 26073.57478719 .00001326 00000+0 17810-3 0 9994 2 40056 98.3273 305.3877 0012022 320.3246 39.7085 14.81092700621338 UKUBE-1 1 40074U 14037F 26073.51504617 .00014449 00000+0 84680-3 0 9997 2 40074 98.4236 66.9687 0003219 103.9825 256.1761 15.11913095634246 BRITE-PL2 (HEWELIUSZ) 1 40119U 14049B 26073.29381576 .00002373 00000+0 22652-3 0 9996 2 40119 97.8979 184.6506 0015133 67.0924 293.1891 14.94207926627278 AEROCUBE 5C 1 40965U 15058B 26073.60871869 .00004488 00000+0 40056-3 0 9997 2 40965 64.7676 196.6899 0130397 100.5403 261.0430 14.90902954351554 AEROCUBE 7 1 40966U 15058C 26073.60086664 .00005874 00000+0 47774-3 0 9993 2 40966 64.7629 180.9025 0120311 99.5241 261.9494 14.94956464351819 FOX-1A (AO-85) 1 40967U 15058D 26073.62501573 .00004594 00000+0 41680-3 0 9995 2 40967 64.7751 212.7187 0128748 93.9412 267.6429 14.90401583 99474 SINOD-D 1 1 40968U 15058E 26073.58968366 .00006353 00000+0 51713-3 0 9991 2 40968 64.7755 194.9696 0117120 91.1460 270.3075 14.95115804102511 SNAP-3 ALICE 1 40970U 15058G 26073.36817989 .00082342 00000+0 17179-2 0 9993 2 40970 64.7554 67.5491 0036919 66.8641 293.6380 15.44336068102176 LMRST-SAT 1 40971U 15058H 26073.55666050 .00004557 00000+0 41547-3 0 9995 2 40971 64.7755 209.0932 0130822 95.9406 265.6633 14.90033569 99459 SNAP-3 EDDIE 1 40972U 15058J 26073.29711050 .00085562 00000+0 17194-2 0 9993 2 40972 64.7478 59.1514 0038017 72.1061 288.4218 15.45366878104293 PROPCUBE 3 1 40973U 15058K 26073.61999598 .00005346 00000+0 44932-3 0 9998 2 40973 64.7692 187.8414 0123277 97.6234 263.8901 14.93581790100675 BISONSAT 1 40974U 15058L 26073.51338708 .00014999 00000+0 77210-3 0 9997 2 40974 64.7600 119.2214 0078708 88.5525 272.4613 15.13918283101279 SNAP-3 JIMI 1 40975U 15058M 26073.62805580 .00007652 00000+0 53990-3 0 9994 2 40975 64.7659 158.7040 0105267 94.3555 266.9598 15.01209828100025 PROPCUBE 1 (FLORA) 1 40976U 15058N 26073.62672588 .00004463 00000+0 42282-3 0 9994 2 40976 64.7735 228.1771 0129880 98.1807 263.4059 14.88683312102184 SINOD-D 3 1 40977U 15058P 26073.56729379 .00006347 00000+0 54112-3 0 9997 2 40977 64.7720 211.1130 0118293 96.1244 265.3362 14.93271989100623 HORYU-4 1 41340U 16012D 26073.57392746 .00121667 00000+0 12267-2 0 9995 2 41340 30.9920 33.8282 0003998 201.4323 158.6163 15.63882335555871 RAVAN 1 41849U 16067B 26073.62604178 .00056027 00000+0 11197-2 0 9998 2 41849 98.0040 312.8526 0005628 348.9077 11.2046 15.46606319513043 CELTEE 1 1 41850U 16067C 26073.55827605 .00008947 00000+0 43518-3 0 9995 2 41850 98.0817 293.6643 0001273 132.2329 227.9012 15.18666849511511 OPTICUBE 04 1 41851U 16067D 26073.54894861 .00003008 00000+0 19301-3 0 9999 2 41851 98.0808 280.8587 0017129 78.9030 281.4122 15.09221766510891 AEROCUBE 8D 1 41852U 16067E 26073.59007665 .00011461 00000+0 49062-3 0 9992 2 41852 98.0830 296.5878 0004877 99.0969 261.0818 15.22975706511662 AEROCUBE 8C 1 41853U 16067F 26073.56403172 .00012104 00000+0 51441-3 0 9992 2 41853 98.0701 293.9124 0006171 39.4979 320.6705 15.23201419511653 CORVUS BC2 1 42846U 17042X 26073.51253006 .00004423 00000+0 30969-3 0 9990 2 42846 97.3957 238.6383 0014857 78.4061 281.8833 15.05651050472813 CORVUS BC1 1 42847U 17042Y 26073.51839638 .00004545 00000+0 31647-3 0 9991 2 42847 97.3990 239.3930 0013386 57.6410 302.6111 15.05859941472843 MAKERSAT 0 1 43016U 17073D 26073.61401780 .00030959 00000+0 92886-3 0 9998 2 43016 97.4784 315.6101 0114797 248.2036 110.6958 15.28049676452005 SIRION PATHFINDER-2 1 43759U 18099B 26073.54380758 .00007715 00000+0 43289-3 0 9991 2 43759 97.4388 124.8561 0007312 266.0289 94.0107 15.13606938398308 CORVUS BC4 1 43767U 18099K 26073.55766907 .00006231 00000+0 36965-3 0 9990 2 43767 97.4200 119.3029 0007552 338.3269 21.7641 15.11671658398102 M2 PATHFINDER 1 45727U 20037E 26073.46885488 .00003997 00000+0 29169-3 0 9993 2 45727 97.8173 263.6424 0012715 111.8208 248.4371 15.04219431311257 NETSAT-4 1 46504U 20068U 26073.52757067 .00026438 00000+0 65045-3 0 9997 2 46504 97.8640 74.3919 0003863 314.9198 45.1733 15.40595765301186 NETSAT-3 1 46505U 20068V 26073.52216866 .00027365 00000+0 70294-3 0 9997 2 46505 97.8676 72.7365 0004250 339.6728 20.4347 15.39270418301109 NETSAT-1 1 46506U 20068W 26073.45270647 .00018207 00000+0 58736-3 0 9999 2 46506 97.8746 68.0482 0005053 4.4278 355.7006 15.32202829300788 NETSAT-2 1 46507U 20068X 26073.41220068 .00028193 00000+0 66548-3 0 9993 2 46507 97.8653 73.8825 0003634 7.2530 352.8767 15.41838359301119 GREENCUBE (IO-117) 1 53109U 22080E 26072.15662715 -.00000003 00000+0 00000+0 0 9992 2 53109 70.1608 331.6501 0009033 310.6857 49.3018 6.42583056 85890 SITRO-AIS 5 (KATYS) 1 57176U 23091L 26073.59434951 .00017703 00000+0 66385-3 0 9997 2 57176 97.5176 136.7042 0013192 79.8268 280.4458 15.27221956149894 SITRO-AIS 6 (CHIRKIN) 1 57192U 23091AC 26073.63689134 .00009718 00000+0 39711-3 0 9995 2 57192 97.5181 136.3226 0014116 80.9224 279.3610 15.24492891149870 SITRO-AIS 8 (ANOKHIN) 1 57193U 23091AD 26073.63454995 .00020955 00000+0 73201-3 0 9999 2 57193 97.5169 137.9784 0012357 77.5460 282.7162 15.29525716149982 SITRO-AIS 7 (FARTUSHNIY) 1 57194U 23091AE 26073.62224862 .00008714 00000+0 35916-3 0 9997 2 57194 97.5180 136.1772 0014016 81.8312 278.4514 15.24236593149869 SITRO-AIS 10 (BURDAEV) 1 57199U 23091AK 26073.64223964 .00027019 00000+0 79589-3 0 9999 2 57199 97.5181 142.1455 0007824 60.2912 299.9109 15.34987208150245 SITRO-AIS 9 (SHCHUKIN) 1 57201U 23091AM 26073.64167784 .00026067 00000+0 77733-3 0 9991 2 57201 97.5180 141.9412 0008070 59.8126 300.3915 15.34605177150236 SITRO-AIS 12 (SMIRENNIY) 1 57204U 23091AQ 26073.58400222 .00027796 00000+0 82224-3 0 9995 2 57204 97.5192 142.2938 0007637 55.6281 304.5683 15.34849887150240 SITRO-AIS 11 (SHEFFER) 1 57208U 23091AU 26073.62126637 .00027874 00000+0 81551-3 0 9998 2 57208 97.5189 142.5247 0007478 55.4713 304.7235 15.35198644150263 SITRO-AIS 25 1 59066U 24039R 26073.61372292 .00005921 00000+0 47076-3 0 9997 2 59066 95.3936 170.1298 0144824 298.9523 59.7245 14.92678466110616 SITRO-AIS 26 1 59067U 24039S 26073.60273322 .00005391 00000+0 43070-3 0 9992 2 59067 95.3934 170.0384 0145203 299.4577 59.2226 14.92489361110604 SITRO-AIS 27 1 59068U 24039T 26073.59878230 .00005530 00000+0 43800-3 0 9996 2 59068 95.3935 170.2651 0144329 298.2641 60.4080 14.92884929110625 SITRO-AIS 28 1 59071U 24039U 26073.64543662 .00004901 00000+0 38827-3 0 9998 2 59071 95.3936 170.3396 0144268 297.9645 60.7041 14.92919895110631 GRBBETA 1 60237U 24128C 26073.62106491 .00006669 00000+0 45815-3 0 9994 2 60237 61.9900 187.8576 0050982 115.0019 245.6380 15.05861275 92029 OOV-CUBE (TUBSAT-30) 1 60240U 24128F 26073.62163683 .00004141 00000+0 31800-3 0 9996 2 60240 61.9949 195.2009 0054104 113.3541 247.3255 15.02294035 91908 ROBUSTA-3A (MEDITERRAN*) 1 60243U 24128J 26073.56444431 .00013995 00000+0 83775-3 0 9990 2 60243 61.9863 182.4870 0051267 109.1432 251.5222 15.10195484 92122 LASARSAT 1 62391U 24247Q 26073.28980069 .00038386 00000+0 93019-3 0 9992 2 62391 44.9755 73.1375 0002158 85.8847 274.2287 15.40492839 68651 CROCUBE 1 62394U 24247T 26072.40892954 .00036311 00000+0 84900-3 0 9998 2 62394 44.9732 76.6258 0001785 59.1506 300.9557 15.41595731 68538